Regional Weather Roundup
Issued by NWS

Home | Current Version | Previous Version | Graphics & Text | Print | Product List | Glossary On
Versions: 1 2 3 4 5 6 7 8 9 10 11 12 13 14 15 16 17 18 19 20 21 22 23 24 25 26 27 28 29 30 31 32 33 34 35 36 37 38 39 40 41 42 43 44 45 46 47 48 49 50
000
ASUS43 KLSX 052207
RWRMO

WEATHER SUMMARY FOR MISSOURI
NATIONAL WEATHER SERVICE SPRINGFIELD MO
500 PM CDT TUE MAY 05 2015

NOTE: "FAIR" INDICATES FEW OR NO CLOUDS BELOW 12,000 FEET WITH NO
       SIGNIFICANT WEATHER AND/OR OBSTRUCTIONS TO VISIBILITY.
       CURRENT SKY AND/OR WEATHER CONDITIONS ARE NOT AVAILABLE FOR
       CHILLICOTHE AND FARMINGTON.

MOZ001>031-035>038-043-044-053-054-052300-
...NORTHERN AND WESTERN MISSOURI...

CITY           SKY/WX    TMP DP  RH WIND       PRES   REMARKS
KANSAS CTY INT CLOUDY    78  57  48 S13G22    30.01F
KANSAS C DTWN  PTSUNNY   81  56  42 S9G21     30.00F
LEE`S SUMMIT   LGT RAIN  74  58  57 S12G23    30.04S
ST JOSEPH      CLOUDY    78  56  46 S10       30.01F
CHILLICOTHE      N/A     81  56  42 S8        30.04F
KIRKSVILLE     MOSUNNY   80  57  45 S8        30.07F

$$
MOZ066>068-077>081-088>096-101>105-052300-
...SOUTHWEST MISSOURI...

CITY           SKY/WX    TMP DP  RH WIND       PRES   REMARKS
SPRINGFIELD    MOSUNNY   78  54  43 SE20G25   30.05F
JOPLIN         PTSUNNY   76  61  59 SE12G24   30.02F

$$
MOZ032>034-039>042-045>050-055>058-069>072-052300-
...CENTRAL MISSOURI...

CITY           SKY/WX    TMP DP  RH WIND       PRES   REMARKS
COLUMBIA       CLOUDY    71  64  78 SE10      30.09F
JEFFERSON CITY PTSUNNY   73  65  75 NE6       30.07F
ROLLA          MOSUNNY   80  58  46 S15       30.08F
SEDALIA        PTSUNNY   79  60  52 S8        30.05F
WHITEMAN AFB   LGT RAIN  78  61  56 SW25      30.04F
WARRENSBURG    LGT RAIN  70  59  68 S6        30.05S
OSAGE BEACH    PTSUNNY   81  57  44 S8        30.07F

$$
MOZ051-052-059>065-052300-
...EAST CENTRAL MISSOURI...

CITY           SKY/WX    TMP DP  RH WIND       PRES   REMARKS
ST LOUIS INTL  PTSUNNY   81  56  42 S12       30.11F
SPIRIT OF STL  PTSUNNY   82  58  43 S8        30.09F
ST CHARLES     CLOUDY    82  54  37 S12       30.09F

$$
MOZ072>076-082>087-097>100-106>115-052300-
...SOUTH CENTRAL AND SOUTHEAST MISSOURI...

CITY           SKY/WX    TMP DP  RH WIND       PRES   REMARKS
CAPE GIRARDEAU CLOUDY    74  62  66 N6        30.13F
FARMINGTON     MOSUNNY   81  57  44 S8        30.16F
POPLAR BLUFF   CLOUDY    81  57  43 SW7       30.10F
WEST PLAINS    PTSUNNY   79  56  45 SE10      30.12F

$$


USA.gov is the U.S. government's official web portal to all federal, state and local government web resources and services.